Home > Weather > Keren > Past weeks

Flag for Eritrea Weather for the Past 2 Weeks in Keren, Eritrea

Now
75 °F

Clear.


Feels Like: 75 °F
Forecast: 58 / 83 °F
Wind: No wind

Location: Gizan

Current Time: Feb 7, 2016 at 7:43:19 AM

Latest Report: Feb 7, 2016 at 6:00 AM


Visibility: 10 mi

Pressure: 29.92 "Hg (25.49 "Hg at 1393m altitude)

Humidity: 83%

Dew point: 70 °F

Location of KerenLocation

Historic Weather in Keren — Graph

°F

Keren Temperature Yesterday

Maximum temperature yesterday: 88 °F (at 1:00 PM)
Minimum temperature yesterday: 75 °F (at 7:00 AM)
Average temperature yesterday: 81 °F

High & Low Weather Summary for the Past Weeks

 TemperatureHumidityPressure
High88 °F (Jan 23, 1:00 PM)83% (Jan 24, 5:00 AM)30.12 "Hg (Jan 24, 5:00 AM)
Low70 °F (Jan 29, 4:00 AM)38% (Jan 28, 3:00 PM)29.86 "Hg (Feb 6, 4:00 PM)
Average81 °F66%30.01 "Hg
* Reported Jan 23 6:00 AM — Feb 7 6:00 AM, Keren, Weather by CustomWeather, © 2016

Note: Actual official high and low records may vary slightly from our data, if they occured in-between our weather recording intervals... More about our weather records

Advertising

Keren Weather History for the Previous 24 Hours

 ConditionsComfort  
Time TempWeatherWind HumidityBarometerVisibility
6:00 AM
Sun, Feb 7
75 °FClear.No wind83%29.92 "Hg10 mi
5:00 AM77 °FClear.No wind79%29.89 "Hg10 mi
4:00 AM77 °FClear.3 mph79%29.89 "Hg10 mi
3:00 AM77 °FClear.7 mph79%29.89 "Hg10 mi
2:00 AM77 °FClear.3 mph79%29.92 "Hg10 mi
1:00 AM77 °FClear.5 mph79%29.92 "Hg10 mi
12:00 AM79 °FClear.No wind79%29.92 "Hg10 mi
11:00 PM
Sat, Feb 6
79 °FClear.No wind79%29.92 "Hg10 mi
10:00 PM79 °FClear.5 mph79%29.92 "Hg10 mi
9:00 PM81 °FClear.5 mph74%29.92 "Hg10 mi
8:00 PM81 °FClear.7 mph79%29.89 "Hg10 mi
7:00 PM81 °FPassing clouds.7 mph79%29.89 "Hg6 mi
6:00 PM82 °FPassing clouds.12 mph79%29.86 "Hg6 mi
5:00 PM82 °FPassing clouds.12 mph74%29.86 "HgN/A
4:00 PM86 °FPassing clouds.14 mph66%29.86 "HgN/A
3:00 PM86 °FPassing clouds.16 mph66%29.89 "HgN/A
2:00 PM86 °FPassing clouds.18 mph66%29.89 "Hg6 mi
1:00 PM88 °FPassing clouds.15 mph62%29.92 "Hg6 mi
12:00 PM86 °FPassing clouds.15 mph62%29.95 "Hg6 mi
11:00 AM84 °FPassing clouds.14 mph70%30.01 "Hg6 mi
10:00 AM84 °FPassing clouds.12 mph66%30.01 "Hg6 mi
9:00 AM81 °FSunny.12 mph74%30.01 "Hg6 mi
8:00 AM79 °FSunny.9 mph74%29.98 "Hg10 mi
7:00 AM75 °FSunny.12 mph83%29.95 "Hg10 mi
Weather by CustomWeather, © 2016

See weather overviewHow to use our weather pages